Content
SEND FEEDBACK

Daily
Averages
Monthly
Summary
United States of America

BIRDSBORO, PENNSYLVANIA


Home > North America > United States > Pennsylvania
Elevation: 400 feet     Latitude: 40 13N     Longitude: 075 50W

WEATHER
 
SELECT A DAY
Number of Records: 163,234;   Date Range: 6/22/97 - 7/23/14
 
SHARE

PRINT THIS DATA

[ ← Previous Day ]
WEATHER ALMANAC - JULY 2, 2014
[ Next Day → ]
[ °C ]   °F
Weather ElementAverageHighLow
Temperature79.2 °F91.9 °F (3:49 pm)72 °F (10:54 pm)
Dewpoint72 °F75.2 °F (3:48 pm)69.1 °F (7:18 pm)
Humidity79.7 %97 % (10:54 pm)55 % (4:09 pm)
Barometer29.89 in29.94 in (9:54 pm)29.84 in (5:54 pm)
Wind Speed4.9 mph15 mph (6:51 pm)
Wind Gust24.2 mph (6:54 pm)
Weather ElementAverage
Visibility8.8 mi
Wind DirectionESE (127.9 °)

Weather ElementTotal
Precipitation0.80 in
Cooling Degree Days17 (Base 65)
Growing Degree Days32 (Base 50)
Averaged from 33 records on July 2, 2014
WEATHER CONDITIONS BREAKOUT
WIND DIRECTION BREAKOUT
WEATHER BY HOUR - JULY 2, 2014
[ °C ]   °F
Local TimeTemperatureDewpointHumidityBarometerVisibilityWind DirectionWind SpeedGust SpeedPrecipitationEventsConditions
1:54 AM78.1 °F70.0 °F76 %29.88 in10.0 miSSW (210°)3.5 mphClear
2:54 AM77.0 °F70.0 °F79 %29.88 in10.0 miSSW (200°)3.5 mphClear
3:54 AM75.9 °F70.0 °F82 %29.87 in10.0 miSouth (190°)3.5 mphClear
4:54 AM75.0 °F71.1 °F87 %29.87 in10.0 miSouth (180°)4.6 mphPartly Cloudy
5:18 AM75.0 °F71.1 °F87 %29.89 in10.0 miCalmMostly Cloudy
5:50 AM75.2 °F71.6 °F89 %29.89 in10.0 miCalmScattered Clouds
5:54 AM73.9 °F71.1 °F91 %29.88 in10.0 miCalmScattered Clouds
6:54 AM75.0 °F71.1 °F87 %29.89 in10.0 miCalmPartly Cloudy
7:31 AM77.0 °F72.0 °F84 %29.90 in10.0 miVariable5.8 mphScattered Clouds
7:54 AM77.0 °F72.0 °F84 %29.88 in10.0 miSouth (190°)5.8 mphMostly Cloudy
8:28 AM79.0 °F73.0 °F82 %29.91 in10.0 miVariable5.8 mphScattered Clouds
8:54 AM80.1 °F73.0 °F79 %29.89 in10.0 miSSW (210°)6.9 mphScattered Clouds
9:54 AM82.0 °F73.9 °F76 %29.88 in10.0 miCalmClear
10:54 AM84.9 °F73.9 °F69 %29.89 in10.0 miSouth (190°)6.9 mphClear
11:54 AM88.0 °F75.0 °F65 %29.90 in10.0 miVariable5.8 mphPartly Cloudy
12:54 PM90.0 °F75.0 °F61 %29.87 in10.0 miVariable5.8 mphPartly Cloudy
1:54 PM91.0 °F75.0 °F59 %29.86 in10.0 miSSW (210°)8.1 mphScattered Clouds
2:54 PM90.0 °F75.0 °F61 %29.85 in10.0 miSouth (180°)6.9 mphScattered Clouds
3:48 PM91.4 °F75.2 °F59 %29.87 in10.0 miVariable6.9 mphThunderstormThunderstorm
3:49 PM91.9 °F75.0 °F58 %29.85 in10.0 miSW (220°)9.2 mphThunderstormThunderstorm
4:09 PM91.9 °F73.9 °F55 %29.86 in10.0 miSSW (200°)10.4 mph18.4 mphScattered Clouds
5:54 PM87.1 °F75.0 °F67 %29.84 in10.0 miWNW (290°)3.5 mphPartly Cloudy
6:51 PM75.2 °F69.8 °F83 %29.88 in3.0 miWNW (300°)15.0 mph20.7 mph0.06 inRain-ThunderstormHeavy Thunderstorms and Rain
6:54 PM73.9 °F70.0 °F87 %29.88 in1.8 miWest (280°)12.7 mph24.2 mph0.13 inRain-ThunderstormHeavy Thunderstorms and Rain
7:05 PM73.9 °F70.0 °F87 %29.90 in3.0 miNW (310°)11.5 mph18.4 mph0.04 inRain-ThunderstormLight Thunderstorms and Rain
7:18 PM73.0 °F69.1 °F87 %29.92 in1.8 miWNW (300°)9.2 mph17.3 mph0.15 inRain-ThunderstormHeavy Thunderstorms and Rain
7:29 PM73.9 °F69.1 °F85 %29.91 in3.0 miSW (220°)6.9 mph17.3 mph0.20 inRain-ThunderstormLight Thunderstorms and Rain
7:54 PM73.0 °F70.0 °F90 %29.87 in10.0 miCalm0.22 inThunderstormPartly Cloudy
8:20 PM73.0 °F71.1 °F93 %29.89 in10.0 miNNW (340°)3.5 mphClear
8:54 PM73.0 °F71.1 °F93 %29.91 in10.0 miCalmClear
9:54 PM73.0 °F71.1 °F93 %29.94 in10.0 miCalmMostly Cloudy
10:54 PM72.0 °F71.1 °F97 %29.92 in9.0 miCalmClear
11:54 PM72.0 °F71.1 °F97 %29.93 in9.0 miCalmClear
Hourly data recorded from KPTW, located miles away from Birdsboro, Pennsylvania







STORIES FROM OUR PARTNERS